| time (UTC) | temp F | wind direction | speed MPH | gust MPH | rain 1hr in | rain 24hr in | rain mn in | humidity % | barometer mb |
| 20260901190542 | 83 | 247 | 2.0 | 5.0 | 0.01 | 0.01 | 0.01 | 89 | 1014.6 |
| 20260901190039 | 83 | 246 | 0.0 | 5.0 | 0.00 | 0.00 | 0.00 | 89 | 1014.6 |
| 20260901185521 | 83 | 244 | 2.0 | 5.0 | 0.00 | 0.00 | 0.00 | 88 | 1014.9 |
| 20260901185019 | 83 | 236 | 0.0 | 4.0 | 0.00 | 0.00 | 0.00 | 88 | 1014.9 |
| 20260901184515 | 84 | 236 | 0.0 | 4.0 | 0.00 | 0.00 | 0.00 | 87 | 1014.9 |
| 20260901184012 | 84 | 295 | 1.0 | 4.0 | 0.00 | 0.00 | 0.00 | 87 | 1014.9 |
| 20260901183509 | 84 | 263 | 1.0 | 4.0 | 0.00 | 0.00 | 0.00 | 86 | 1014.9 |
| 20260901183006 | 84 | 336 | 1.0 | 4.0 | 0.00 | 0.00 | 0.00 | 85 | 1014.9 |
| 20260901182432 | 84 | 270 | 1.0 | 4.0 | 0.00 | 0.00 | 0.00 | 84 | 1014.9 |
| 20260901181929 | 84 | 280 | 2.0 | 5.0 | 0.00 | 0.00 | 0.00 | 85 | 1014.9 |
| 20260901181417 | 84 | 282 | 1.0 | 5.0 | 0.00 | 0.00 | 0.00 | 85 | 1014.9 |
| 20260901180914 | 84 | 279 | 1.0 | 5.0 | 0.00 | 0.00 | 0.00 | 84 | 1014.9 |
| 20260901180411 | 84 | 306 | 1.0 | 5.0 | 0.00 | 0.00 | 0.00 | 83 | 1014.9 |
| 20260901175854 | 84 | 251 | 2.0 | 4.0 | 0.00 | 0.00 | 0.00 | 83 | 1014.9 |
| 20260901175332 | 84 | 325 | 2.0 | 3.0 | 0.00 | 0.00 | 0.00 | 84 | 1014.9 |
| 20260901174740 | 84 | 191 | 2.0 | 4.0 | 0.00 | 0.00 | 0.00 | 84 | 1015.2 |
| 20260901174236 | 84 | 249 | 2.0 | 4.0 | 0.00 | 0.00 | 0.00 | 84 | 1015.2 |
| 20260901173714 | 84 | 256 | 2.0 | 5.0 | 0.00 | 0.00 | 0.00 | 84 | 1015.2 |
| 20260901173211 | 84 | 237 | 2.0 | 5.0 | 0.00 | 0.00 | 0.00 | 84 | 1015.2 |
| 20260901172708 | 84 | 253 | 1.0 | 5.0 | 0.00 | 0.00 | 0.00 | 85 | 1015.6 |
| 20260901172205 | 84 | 289 | 2.0 | 5.0 | 0.00 | 0.00 | 0.00 | 84 | 1015.6 |
| 20260901171644 | 84 | 277 | 1.0 | 4.0 | 0.00 | 0.00 | 0.00 | 85 | 1015.9 |
| 20260901171141 | 84 | 276 | 2.0 | 3.0 | 0.00 | 0.00 | 0.00 | 84 | 1015.9 |
| 20260901170638 | 84 | 55 | 1.0 | 3.0 | 0.00 | 0.00 | 0.00 | 84 | 1016.3 |
| 20260901170136 | 84 | 57 | 1.0 | 3.0 | 0.00 | 0.00 | 0.00 | 83 | 1016.3 |
| 20260901165611 | 84 | 349 | 1.0 | 6.0 | 0.00 | 0.00 | 0.00 | 84 | 1015.9 |
| 20260901165109 | 85 | 5 | 1.0 | 6.0 | 0.00 | 0.00 | 0.00 | 83 | 1016.3 |
| 20260901164606 | 85 | 45 | 1.0 | 6.0 | 0.00 | 0.00 | 0.00 | 83 | 1016.3 |
| 20260901164103 | 85 | 72 | 1.0 | 6.0 | 0.00 | 0.00 | 0.00 | 82 | 1016.3 |
| 20260901163600 | 85 | 259 | 1.0 | 8.0 | 0.00 | 0.00 | 0.00 | 82 | 1016.3 |
| 20260901163025 | 85 | 86 | 1.0 | 8.0 | 0.00 | 0.00 | 0.00 | 82 | 1016.3 |
| 20260901162522 | 85 | 28 | 2.0 | 8.0 | 0.00 | 0.00 | 0.00 | 82 | 1016.3 |
| 20260901162018 | 85 | 30 | 2.0 | 8.0 | 0.00 | 0.00 | 0.00 | 81 | 1016.3 |
| 20260901161515 | 86 | 40 | 2.0 | 8.0 | 0.00 | 0.00 | 0.00 | 81 | 1016.3 |
| 20260901161012 | 86 | 45 | 3.0 | 8.0 | 0.00 | 0.00 | 0.00 | 81 | 1016.3 |
| 20260901160431 | 86 | 13 | 3.0 | 8.0 | 0.00 | 0.00 | 0.00 | 81 | 1016.3 |
| 20260901155928 | 86 | 42 | 3.0 | 7.0 | 0.00 | 0.00 | 0.00 | 81 | 1016.3 |
| 20260901155425 | 86 | 52 | 2.0 | 5.0 | 0.00 | 0.00 | 0.00 | 81 | 1016.3 |
| 20260901154851 | 86 | 103 | 1.0 | 5.0 | 0.00 | 0.00 | 0.00 | 81 | 1015.9 |
| 20260901154348 | 86 | 54 | 2.0 | 5.0 | 0.00 | 0.00 | 0.00 | 81 | 1015.9 |
| 20260901153846 | 85 | 351 | 1.0 | 5.0 | 0.00 | 0.00 | 0.00 | 81 | 1015.9 |
| 20260901153343 | 85 | 21 | 2.0 | 4.0 | 0.00 | 0.00 | 0.00 | 82 | 1015.9 |
| 20260901152839 | 85 | 28 | 1.0 | 5.0 | 0.00 | 0.00 | 0.00 | 82 | 1015.6 |
| 20260901152337 | 85 | 76 | 1.0 | 5.0 | 0.00 | 0.00 | 0.00 | 82 | 1015.6 |
| 20260901151834 | 85 | 62 | 2.0 | 5.0 | 0.00 | 0.00 | 0.00 | 83 | 1015.6 |
| 20260901151312 | 85 | 224 | 2.0 | 5.0 | 0.00 | 0.00 | 0.00 | 84 | 1015.6 |
| 20260901150737 | 84 | 236 | 2.0 | 3.0 | 0.00 | 0.00 | 0.00 | 84 | 1015.6 |
| 20260901150216 | 84 | 113 | 1.0 | 3.0 | 0.00 | 0.00 | 0.00 | 85 | 1015.6 |
| 20260901145657 | 84 | 29 | 1.0 | 3.0 | 0.00 | 0.00 | 0.00 | 85 | 1015.9 |
| 20260901145153 | 84 | 155 | 1.0 | 2.0 | 0.00 | 0.00 | 0.00 | 85 | 1015.9 |
| 20260901144650 | 84 | 116 | 1.0 | 3.0 | 0.00 | 0.00 | 0.00 | 85 | 1015.6 |
| 20260901144147 | 84 | 195 | 1.0 | 3.0 | 0.00 | 0.00 | 0.00 | 86 | 1015.6 |
| 20260901143644 | 84 | 87 | 1.0 | 3.0 | 0.00 | 0.00 | 0.00 | 86 | 1015.6 |
| 20260901143141 | 83 | 273 | 1.0 | 3.0 | 0.00 | 0.00 | 0.00 | 86 | 1015.6 |
| 20260901142638 | 83 | 277 | 1.0 | 3.0 | 0.00 | 0.00 | 0.00 | 87 | 1015.9 |
| 20260901142134 | 83 | 331 | 2.0 | 3.0 | 0.00 | 0.00 | 0.00 | 87 | 1015.9 |
| 20260901141631 | 83 | 321 | 1.0 | 3.0 | 0.00 | 0.00 | 0.00 | 87 | 1015.9 |
| 20260901141128 | 83 | 274 | 1.0 | 3.0 | 0.00 | 0.00 | 0.00 | 87 | 1015.6 |
| 20260901140624 | 82 | 41 | 1.0 | 4.0 | 0.00 | 0.00 | 0.00 | 88 | 1015.9 |
| 20260901140059 | 82 | 227 | 1.0 | 4.0 | 0.00 | 0.00 | 0.00 | 88 | 1015.6 |
| 20260901135526 | 82 | 234 | 1.0 | 4.0 | 0.00 | 0.00 | 0.00 | 88 | 1015.6 |
| 20260901135004 | 82 | 233 | 1.0 | 3.0 | 0.00 | 0.00 | 0.00 | 89 | 1015.6 |
| 20260901134359 | 82 | 251 | 2.0 | 3.0 | 0.00 | 0.00 | 0.00 | 89 | 1015.6 |
| 20260901133855 | 82 | 259 | 2.0 | 2.0 | 0.00 | 0.00 | 0.00 | 89 | 1015.6 |
| 20260901133352 | 82 | 5 | 0.0 | 0.0 | 0.00 | 0.00 | 0.00 | 89 | 1015.6 |
| 20260901132849 | 82 | 5 | 0.0 | 0.0 | 0.00 | 0.00 | 0.00 | 89 | 1015.6 |
| 20260901132346 | 82 | 5 | 0.0 | 0.0 | 0.00 | 0.00 | 0.00 | 89 | 1015.6 |
| 20260901131824 | 82 | 335 | 0.0 | 0.0 | 0.00 | 0.00 | 0.00 | 90 | 1015.6 |
| 20260901131250 | 81 | 333 | 0.0 | 0.0 | 0.00 | 0.00 | 0.00 | 90 | 1015.6 |
| 20260901130748 | 81 | 333 | 0.0 | 0.0 | 0.00 | 0.00 | 0.00 | 90 | 1015.6 |
| 20260901130226 | 81 | 333 | 0.0 | 0.0 | 0.00 | 0.00 | 0.00 | 90 | 1015.6 |
| 20260901125629 | 81 | 333 | 0.0 | 0.0 | 0.00 | 0.00 | 0.00 | 90 | 1015.2 |
| 20260901125126 | 81 | 333 | 0.0 | 0.0 | 0.00 | 0.00 | 0.00 | 90 | 1015.2 |
| 20260901124552 | 81 | 333 | 0.0 | 1.0 | 0.00 | 0.00 | 0.00 | 90 | 1015.2 |
| 20260901124047 | 81 | 333 | 0.0 | 1.0 | 0.00 | 0.00 | 0.00 | 90 | 1015.2 |
| 20260901123525 | 81 | 333 | 0.0 | 1.0 | 0.00 | 0.00 | 0.00 | 90 | 1015.2 |
| 20260901123022 | 81 | 333 | 1.0 | 1.0 | 0.00 | 0.00 | 0.00 | 90 | 1015.2 |
| 20260901122519 | 81 | 333 | 0.0 | 1.0 | 0.00 | 0.00 | 0.00 | 90 | 1014.9 |
| 20260901122016 | 81 | 333 | 0.0 | 1.0 | 0.00 | 0.00 | 0.00 | 90 | 1014.9 |
| 20260901121513 | 81 | 333 | 1.0 | 1.0 | 0.00 | 0.00 | 0.00 | 91 | 1014.9 |
| 20260901121011 | 81 | 333 | 0.0 | 1.0 | 0.00 | 0.00 | 0.00 | 91 | 1014.9 |
| 20260901120508 | 81 | 333 | 0.0 | 1.0 | 0.00 | 0.00 | 0.00 | 91 | 1014.9 |
| 20260901115946 | 81 | 333 | 0.0 | 1.0 | 0.00 | 0.00 | 0.00 | 91 | 1014.6 |
| 20260901115443 | 81 | 333 | 1.0 | 1.0 | 0.00 | 0.00 | 0.00 | 91 | 1014.6 |
| 20260901114940 | 81 | 333 | 1.0 | 1.0 | 0.00 | 0.00 | 0.00 | 91 | 1014.6 |
| 20260901114437 | 81 | 332 | 1.0 | 1.0 | 0.00 | 0.00 | 0.00 | 91 | 1014.6 |
| 20260901113903 | 81 | 340 | 0.0 | 2.0 | 0.00 | 0.00 | 0.00 | 91 | 1014.6 |
| 20260901113329 | 81 | 340 | 1.0 | 2.0 | 0.00 | 0.00 | 0.00 | 91 | 1014.9 |
| 20260901112816 | 81 | 340 | 0.0 | 2.0 | 0.00 | 0.00 | 0.00 | 91 | 1014.9 |
| 20260901112312 | 81 | 340 | 1.0 | 1.0 | 0.00 | 0.00 | 0.00 | 91 | 1014.9 |
| 20260901111809 | 81 | 339 | 0.0 | 1.0 | 0.00 | 0.00 | 0.00 | 91 | 1014.9 |
| 20260901111302 | 81 | 339 | 1.0 | 1.0 | 0.00 | 0.00 | 0.00 | 91 | 1014.6 |
| 20260901110758 | 81 | 339 | 0.0 | 1.0 | 0.00 | 0.00 | 0.00 | 91 | 1014.6 |
| 20260901110202 | 81 | 339 | 0.0 | 1.0 | 0.00 | 0.00 | 0.00 | 91 | 1014.6 |
| 20260901105610 | 81 | 341 | 0.0 | 2.0 | 0.00 | 0.00 | 0.00 | 91 | 1014.6 |
| 20260901105107 | 81 | 341 | 0.0 | 2.0 | 0.00 | 0.00 | 0.00 | 91 | 1014.6 |
| 20260901104604 | 81 | 341 | 1.0 | 2.0 | 0.00 | 0.00 | 0.00 | 91 | 1014.6 |
| 20260901104101 | 81 | 346 | 1.0 | 2.0 | 0.00 | 0.00 | 0.00 | 91 | 1014.6 |
| 20260901103559 | 81 | 43 | 0.0 | 1.0 | 0.00 | 0.00 | 0.00 | 91 | 1014.6 |
| 20260901103025 | 81 | 43 | 0.0 | 1.0 | 0.00 | 0.00 | 0.00 | 91 | 1014.6 |
| 20260901102451 | 81 | 43 | 0.0 | 1.0 | 0.00 | 0.00 | 0.00 | 91 | 1014.6 |
| 20260901101930 | 81 | 43 | 1.0 | 1.0 | 0.00 | 0.00 | 0.00 | 91 | 1014.6 |
| 20260901101408 | 81 | 43 | 0.0 | 1.0 | 0.00 | 0.00 | 0.00 | 91 | 1014.6 |
| 20260901100846 | 81 | 43 | 1.0 | 1.0 | 0.00 | 0.00 | 0.00 | 91 | 1014.6 |
| 20260901100325 | 81 | 44 | 0.0 | 1.0 | 0.00 | 0.00 | 0.00 | 91 | 1014.6 |
| 20260901095803 | 81 | 98 | 1.0 | 1.0 | 0.00 | 0.00 | 0.00 | 91 | 1014.6 |
| 20260901095259 | 81 | 98 | 0.0 | 1.0 | 0.00 | 0.00 | 0.00 | 91 | 1014.6 |
| 20260901094756 | 81 | 97 | 1.0 | 1.0 | 0.00 | 0.00 | 0.00 | 91 | 1014.6 |
| 20260901094253 | 81 | 98 | 1.0 | 1.0 | 0.00 | 0.00 | 0.00 | 91 | 1014.6 |
| 20260901093750 | 81 | 98 | 0.0 | 2.0 | 0.00 | 0.00 | 0.00 | 91 | 1014.9 |
| 20260901093231 | 81 | 98 | 0.0 | 2.0 | 0.00 | 0.00 | 0.00 | 91 | 1014.9 |
| 20260901092728 | 81 | 98 | 0.0 | 2.0 | 0.00 | 0.00 | 0.00 | 92 | 1014.6 |
| 20260901092225 | 81 | 98 | 2.0 | 2.0 | 0.00 | 0.00 | 0.00 | 92 | 1014.9 |
| 20260901091722 | 81 | 97 | 0.0 | 1.0 | 0.00 | 0.00 | 0.00 | 92 | 1014.9 |
| 20260901091219 | 81 | 97 | 0.0 | 1.0 | 0.00 | 0.00 | 0.00 | 92 | 1014.9 |
| 20260901090717 | 81 | 97 | 0.0 | 1.0 | 0.00 | 0.00 | 0.00 | 92 | 1014.9 |
| 20260901090214 | 81 | 97 | 1.0 | 1.0 | 0.00 | 0.00 | 0.00 | 92 | 1014.9 |
| 20260901085711 | 81 | 97 | 0.0 | 0.0 | 0.00 | 0.00 | 0.00 | 92 | 1014.9 |
| 20260901085207 | 80 | 97 | 0.0 | 0.0 | 0.00 | 0.00 | 0.00 | 92 | 1014.9 |
| 20260901084704 | 80 | 97 | 0.0 | 0.0 | 0.00 | 0.00 | 0.00 | 91 | 1014.9 |
| 20260901084201 | 80 | 97 | 0.0 | 0.0 | 0.00 | 0.00 | 0.00 | 91 | 1014.9 |
| 20260901083659 | 80 | 97 | 0.0 | 0.0 | 0.00 | 0.00 | 0.00 | 91 | 1014.9 |
| 20260901083156 | 80 | 97 | 0.0 | 0.0 | 0.00 | 0.00 | 0.00 | 91 | 1014.9 |
| 20260901082653 | 81 | 97 | 0.0 | 0.0 | 0.00 | 0.00 | 0.00 | 91 | 1014.9 |
| 20260901082150 | 81 | 97 | 0.0 | 0.0 | 0.00 | 0.00 | 0.00 | 91 | 1014.9 |
| 20260901081648 | 81 | 97 | 0.0 | 0.0 | 0.00 | 0.00 | 0.00 | 91 | 1014.9 |
| 20260901081145 | 81 | 97 | 0.0 | 0.0 | 0.00 | 0.00 | 0.00 | 91 | 1014.9 |
| 20260901080611 | 81 | 97 | 0.0 | 0.0 | 0.00 | 0.00 | 0.00 | 90 | 1014.9 |
| 20260901080108 | 81 | 97 | 0.0 | 0.0 | 0.00 | 0.00 | 0.00 | 90 | 1014.9 |
| 20260901075531 | 81 | 97 | 0.0 | 0.0 | 0.00 | 0.00 | 0.00 | 90 | 1014.9 |
| 20260901075028 | 81 | 97 | 0.0 | 0.0 | 0.00 | 0.00 | 0.00 | 90 | 1014.9 |
| 20260901074525 | 81 | 97 | 0.0 | 0.0 | 0.00 | 0.00 | 0.00 | 90 | 1014.9 |
| 20260901074022 | 81 | 97 | 0.0 | 0.0 | 0.00 | 0.00 | 0.00 | 90 | 1014.9 |
| 20260901073501 | 81 | 97 | 0.0 | 0.0 | 0.00 | 0.00 | 0.00 | 90 | 1014.9 |
| 20260901072939 | 81 | 97 | 0.0 | 0.0 | 0.00 | 0.00 | 0.00 | 89 | 1014.9 |
| 20260901072416 | 81 | 97 | 0.0 | 0.0 | 0.00 | 0.00 | 0.00 | 89 | 1014.9 |
| 20260901071914 | 81 | 97 | 0.0 | 0.0 | 0.00 | 0.00 | 0.00 | 89 | 1014.9 |
| 20260901071401 | 81 | 97 | 0.0 | 0.0 | 0.00 | 0.00 | 0.00 | 89 | 1014.9 |
| 20260901070857 | 81 | 97 | 0.0 | 0.0 | 0.00 | 0.00 | 0.00 | 89 | 1015.2 |
| 20260901070348 | 82 | 97 | 0.0 | 0.0 | 0.00 | 0.00 | 0.00 | 89 | 1015.2 |
| 20260901065814 | 82 | 97 | 0.0 | 0.0 | 0.00 | 0.00 | 0.00 | 89 | 1015.2 |
| 20260901065311 | 82 | 97 | 0.0 | 0.0 | 0.00 | 0.00 | 0.00 | 89 | 1015.2 |
| 20260901064808 | 82 | 97 | 0.0 | 0.0 | 0.00 | 0.00 | 0.00 | 89 | 1015.2 |
| 20260901064305 | 82 | 97 | 0.0 | 0.0 | 0.00 | 0.00 | 0.00 | 89 | 1015.2 |
| 20260901063802 | 82 | 97 | 0.0 | 0.0 | 0.00 | 0.00 | 0.00 | 89 | 1015.2 |
| 20260901063300 | 82 | 97 | 0.0 | 0.0 | 0.00 | 0.00 | 0.00 | 89 | 1014.9 |
| 20260901062726 | 82 | 97 | 0.0 | 0.0 | 0.00 | 0.00 | 0.00 | 89 | 1014.9 |
| 20260901062204 | 82 | 97 | 0.0 | 0.0 | 0.00 | 0.00 | 0.00 | 89 | 1015.2 |
| 20260901061701 | 82 | 97 | 0.0 | 1.0 | 0.00 | 0.00 | 0.00 | 89 | 1015.2 |
| 20260901061158 | 82 | 97 | 0.0 | 1.0 | 0.00 | 0.00 | 0.00 | 89 | 1015.2 |
| 20260901060624 | 82 | 97 | 0.0 | 1.0 | 0.00 | 0.00 | 0.00 | 89 | 1015.2 |
| 20260901060121 | 82 | 97 | 0.0 | 0.0 | 0.00 | 0.00 | 0.00 | 89 | 1015.2 |
| 20260901055546 | 82 | 97 | 0.0 | 0.0 | 0.00 | 0.00 | 0.00 | 89 | 1015.2 |
| 20260901055043 | 82 | 97 | 0.0 | 0.0 | 0.00 | 0.00 | 0.00 | 89 | 1015.2 |
| 20260901054540 | 82 | 97 | 0.0 | 0.0 | 0.00 | 0.00 | 0.00 | 88 | 1015.2 |
| 20260901054036 | 82 | 97 | 0.0 | 0.0 | 0.00 | 0.00 | 0.00 | 88 | 1015.2 |
| 20260901053533 | 82 | 97 | 0.0 | 0.0 | 0.00 | 0.00 | 0.00 | 88 | 1015.2 |
| 20260901053030 | 82 | 97 | 0.0 | 0.0 | 0.00 | 0.00 | 0.00 | 88 | 1015.2 |
| 20260901052525 | 82 | 97 | 0.0 | 0.0 | 0.00 | 0.00 | 0.00 | 88 | 1015.2 |
| 20260901052022 | 82 | 97 | 0.0 | 0.0 | 0.00 | 0.00 | 0.00 | 88 | 1015.2 |
| 20260901051519 | 82 | 97 | 0.0 | 0.0 | 0.00 | 0.00 | 0.00 | 88 | 1015.2 |
| 20260901050957 | 82 | 97 | 0.0 | 0.0 | 0.00 | 0.00 | 0.00 | 87 | 1015.2 |
| 20260901050435 | 82 | 97 | 0.0 | 0.0 | 0.00 | 0.00 | 0.00 | 87 | 1015.2 |
| 20260901045932 | 82 | 97 | 0.0 | 0.0 | 0.00 | 0.00 | 0.00 | 87 | 1015.2 |
| 20260901045429 | 82 | 97 | 0.0 | 0.0 | 0.00 | 0.00 | 0.00 | 88 | 1015.2 |
| 20260901044855 | 82 | 97 | 0.0 | 0.0 | 0.00 | 0.00 | 0.00 | 88 | 1014.9 |
| 20260901044321 | 82 | 97 | 0.0 | 0.0 | 0.00 | 0.00 | 0.00 | 87 | 1014.9 |
| 20260901043818 | 82 | 97 | 0.0 | 0.0 | 0.00 | 0.00 | 0.00 | 87 | 1015.2 |
| 20260901043244 | 82 | 97 | 0.0 | 0.0 | 0.00 | 0.00 | 0.00 | 87 | 1015.2 |
| 20260901042741 | 82 | 97 | 0.0 | 0.0 | 0.00 | 0.00 | 0.00 | 87 | 1015.2 |
| 20260901042238 | 82 | 97 | 0.0 | 0.0 | 0.00 | 0.00 | 0.00 | 87 | 1015.2 |
| 20260901041645 | 82 | 97 | 0.0 | 0.0 | 0.00 | 0.00 | 0.00 | 87 | 1015.2 |
| 20260901041140 | 82 | 97 | 0.0 | 0.0 | 0.00 | 0.00 | 0.00 | 87 | 1015.2 |
| 20260901040606 | 82 | 97 | 0.0 | 0.0 | 0.00 | 0.00 | 0.00 | 87 | 1015.2 |
| 20260901040032 | 82 | 97 | 0.0 | 0.0 | 0.00 | 0.00 | 0.00 | 87 | 1015.2 |
| 20260901035528 | 82 | 97 | 0.0 | 0.0 | 0.00 | 0.00 | 0.00 | 86 | 1015.2 |
| 20260901034953 | 82 | 97 | 0.0 | 0.0 | 0.00 | 0.00 | 0.00 | 86 | 1014.9 |
| 20260901034450 | 82 | 97 | 0.0 | 0.0 | 0.00 | 0.00 | 0.00 | 86 | 1014.9 |
| 20260901033947 | 82 | 97 | 0.0 | 0.0 | 0.00 | 0.00 | 0.00 | 86 | 1014.9 |
| 20260901033444 | 83 | 97 | 0.0 | 0.0 | 0.00 | 0.00 | 0.00 | 86 | 1014.9 |
| 20260901032940 | 83 | 97 | 0.0 | 0.0 | 0.00 | 0.00 | 0.00 | 86 | 1015.2 |
| 20260901032405 | 83 | 97 | 0.0 | 0.0 | 0.00 | 0.00 | 0.00 | 86 | 1015.2 |
| 20260901031903 | 83 | 97 | 0.0 | 0.0 | 0.00 | 0.00 | 0.00 | 86 | 1014.9 |
| 20260901031400 | 83 | 97 | 0.0 | 0.0 | 0.00 | 0.00 | 0.00 | 86 | 1014.9 |
| 20260901030855 | 83 | 97 | 0.0 | 0.0 | 0.00 | 0.00 | 0.00 | 86 | 1014.9 |
| 20260901030352 | 83 | 97 | 0.0 | 0.0 | 0.00 | 0.00 | 0.00 | 86 | 1014.9 |
| 20260901025849 | 83 | 97 | 0.0 | 0.0 | 0.00 | 0.00 | 0.00 | 86 | 1014.9 |
| 20260901025346 | 83 | 97 | 0.0 | 0.0 | 0.00 | 0.00 | 0.00 | 86 | 1014.9 |
| 20260901024843 | 83 | 97 | 0.0 | 0.0 | 0.00 | 0.00 | 0.00 | 86 | 1014.6 |
| 20260901024340 | 84 | 97 | 0.0 | 0.0 | 0.00 | 0.00 | 0.00 | 86 | 1014.6 |
| 20260901023837 | 84 | 97 | 0.0 | 0.0 | 0.00 | 0.00 | 0.00 | 86 | 1014.2 |
| 20260901023334 | 84 | 97 | 0.0 | 0.0 | 0.00 | 0.00 | 0.00 | 86 | 1014.2 |
| 20260901022831 | 84 | 97 | 0.0 | 0.0 | 0.00 | 0.00 | 0.00 | 86 | 1014.2 |
| 20260901022256 | 84 | 97 | 0.0 | 0.0 | 0.00 | 0.00 | 0.00 | 85 | 1014.2 |
| 20260901021726 | 84 | 97 | 0.0 | 0.0 | 0.00 | 0.00 | 0.00 | 85 | 1014.2 |
| 20260901021151 | 84 | 97 | 0.0 | 0.0 | 0.00 | 0.00 | 0.00 | 85 | 1014.2 |
| 20260901020115 | 85 | 97 | 0.0 | 0.0 | 0.00 | 0.00 | 0.00 | 85 | 1013.9 |
| 20260901015553 | 85 | 97 | 0.0 | 0.0 | 0.00 | 0.00 | 0.00 | 84 | 1013.9 |
| 20260901015050 | 85 | 97 | 0.0 | 0.0 | 0.00 | 0.00 | 0.00 | 84 | 1013.9 |
| 20260901014547 | 85 | 97 | 0.0 | 0.0 | 0.00 | 0.00 | 0.00 | 84 | 1013.9 |
| 20260901014025 | 85 | 97 | 0.0 | 0.0 | 0.00 | 0.00 | 0.00 | 83 | 1013.9 |
| 20260901013522 | 85 | 97 | 0.0 | 0.0 | 0.00 | 0.00 | 0.00 | 83 | 1013.9 |
| 20260901013000 | 86 | 97 | 0.0 | 0.0 | 0.00 | 0.00 | 0.00 | 82 | 1013.9 |
| 20260901012457 | 86 | 97 | 0.0 | 0.0 | 0.00 | 0.00 | 0.00 | 82 | 1013.5 |
| 20260901011935 | 86 | 97 | 0.0 | 0.0 | 0.00 | 0.00 | 0.00 | 82 | 1013.9 |
| 20260901011433 | 86 | 97 | 0.0 | 0.0 | 0.00 | 0.00 | 0.00 | 81 | 1013.9 |
| 20260901010910 | 86 | 97 | 0.0 | 0.0 | 0.00 | 0.00 | 0.00 | 81 | 1013.9 |
| 20260901010408 | 87 | 97 | 0.0 | 0.0 | 0.00 | 0.00 | 0.00 | 81 | 1013.9 |
| 20260901005904 | 87 | 97 | 0.0 | 0.0 | 0.00 | 0.00 | 0.00 | 80 | 1013.9 |
| 20260901005402 | 87 | 97 | 0.0 | 0.0 | 0.00 | 0.00 | 0.00 | 80 | 1013.9 |
| 20260901004858 | 87 | 97 | 0.0 | 0.0 | 0.00 | 0.00 | 0.00 | 80 | 1013.9 |
| 20260901004337 | 88 | 97 | 0.0 | 0.0 | 0.00 | 0.00 | 0.00 | 79 | 1013.9 |
| 20260901003834 | 88 | 97 | 0.0 | 0.0 | 0.00 | 0.00 | 0.00 | 79 | 1013.9 |
| 20260901003330 | 88 | 97 | 0.0 | 0.0 | 0.00 | 0.00 | 0.00 | 79 | 1013.9 |
| 20260901002828 | 88 | 97 | 0.0 | 0.0 | 0.00 | 0.00 | 0.00 | 79 | 1013.9 |
| 20260901002324 | 88 | 97 | 0.0 | 1.0 | 0.00 | 0.00 | 0.00 | 78 | 1013.9 |
| 20260901001821 | 88 | 97 | 0.0 | 1.0 | 0.00 | 0.00 | 0.00 | 78 | 1013.9 |
| 20260901001318 | 89 | 97 | 0.0 | 1.0 | 0.00 | 0.00 | 0.00 | 78 | 1013.9 |
| 20260901000815 | 89 | 97 | 1.0 | 1.0 | 0.00 | 0.00 | 0.00 | 78 | 1013.9 |
| 20260901000314 | 89 | 97 | 0.0 | 0.0 | 0.00 | 0.00 | 0.00 | 78 | 1013.9 |
| 20260831235808 | 89 | 97 | 0.0 | 1.0 | 0.00 | 0.00 | 0.00 | 77 | 1013.9 |
| 20260831235306 | 89 | 97 | 0.0 | 1.0 | 0.00 | 0.00 | 0.00 | 77 | 1013.9 |
| 20260831234802 | 89 | 97 | 0.0 | 1.0 | 0.00 | 0.00 | 0.00 | 77 | 1013.9 |
| 20260831234300 | 90 | 97 | 0.0 | 1.0 | 0.00 | 0.00 | 0.00 | 76 | 1013.9 |
| 20260831233756 | 90 | 97 | 0.0 | 1.0 | 0.00 | 0.00 | 0.00 | 76 | 1013.9 |
| 20260831233254 | 90 | 97 | 0.0 | 1.0 | 0.00 | 0.00 | 0.00 | 75 | 1013.9 |
| 20260831232750 | 90 | 97 | 1.0 | 1.0 | 0.00 | 0.00 | 0.00 | 75 | 1013.9 |
| 20260831232152 | 90 | 97 | 0.0 | 1.0 | 0.00 | 0.00 | 0.00 | 75 | 1013.9 |
| 20260831231649 | 90 | 97 | 0.0 | 2.0 | 0.00 | 0.00 | 0.00 | 74 | 1013.9 |
| 20260831231127 | 91 | 97 | 0.0 | 2.0 | 0.00 | 0.00 | 0.00 | 74 | 1013.9 |
| 20260831230624 | 91 | 97 | 0.0 | 2.0 | 0.00 | 0.00 | 0.00 | 74 | 1013.9 |
| 20260831230121 | 91 | 97 | 1.0 | 3.0 | 0.00 | 0.00 | 0.00 | 74 | 1014.2 |
| 20260831225617 | 91 | 98 | 1.0 | 3.0 | 0.00 | 0.00 | 0.00 | 75 | 1014.2 |
| 20260831225012 | 91 | 98 | 1.0 | 3.0 | 0.00 | 0.00 | 0.00 | 76 | 1014.2 |
| 20260831224509 | 91 | 100 | 1.0 | 2.0 | 0.00 | 0.00 | 0.00 | 75 | 1013.9 |
| 20260831224005 | 91 | 322 | 1.0 | 2.0 | 0.00 | 0.00 | 0.00 | 75 | 1014.2 |
| 20260831223431 | 90 | 253 | 0.0 | 1.0 | 0.00 | 0.00 | 0.00 | 76 | 1014.2 |
| 20260831222859 | 90 | 253 | 1.0 | 1.0 | 0.00 | 0.00 | 0.00 | 77 | 1014.2 |
| 20260831222356 | 90 | 253 | 0.0 | 1.0 | 0.00 | 0.00 | 0.00 | 77 | 1014.2 |
| 20260831221853 | 90 | 248 | 0.0 | 1.0 | 0.00 | 0.00 | 0.00 | 77 | 1014.2 |
| 20260831221349 | 89 | 248 | 0.0 | 1.0 | 0.00 | 0.00 | 0.00 | 78 | 1014.2 |
| 20260831220813 | 89 | 248 | 0.0 | 1.0 | 0.00 | 0.00 | 0.00 | 78 | 1014.2 |
| 20260831220239 | 89 | 248 | 0.0 | 1.0 | 0.00 | 0.00 | 0.00 | 79 | 1014.2 |
| 20260831215634 | 88 | 248 | 0.0 | 1.0 | 0.00 | 0.00 | 0.00 | 79 | 1014.2 |
| 20260831215131 | 88 | 248 | 0.0 | 0.0 | 0.00 | 0.00 | 0.00 | 79 | 1014.6 |
| 20260831214628 | 88 | 248 | 0.0 | 3.0 | 0.00 | 0.00 | 0.00 | 79 | 1014.6 |
| 20260831214125 | 89 | 248 | 0.0 | 4.0 | 0.00 | 0.00 | 0.00 | 79 | 1014.6 |
| 20260831213551 | 89 | 248 | 0.0 | 4.0 | 0.00 | 0.00 | 0.00 | 79 | 1014.6 |
| 20260831213049 | 89 | 248 | 0.0 | 4.0 | 0.00 | 0.00 | 0.00 | 79 | 1014.6 |
| 20260831212545 | 88 | 248 | 2.0 | 4.0 | 0.00 | 0.00 | 0.00 | 79 | 1014.9 |
| 20260831212042 | 88 | 247 | 1.0 | 2.0 | 0.00 | 0.00 | 0.00 | 80 | 1014.9 |
| 20260831211539 | 88 | 247 | 1.0 | 2.0 | 0.00 | 0.00 | 0.00 | 80 | 1014.9 |
| 20260831211036 | 87 | 247 | 0.0 | 9.0 | 0.00 | 0.00 | 0.00 | 80 | 1014.9 |
| 20260831210533 | 87 | 246 | 0.0 | 9.0 | 0.00 | 0.00 | 0.00 | 80 | 1014.9 |
| 20260831210030 | 87 | 252 | 1.0 | 9.0 | 0.00 | 0.00 | 0.00 | 79 | 1015.2 |
| 20260831205456 | 88 | 257 | 4.0 | 9.0 | 0.00 | 0.00 | 0.00 | 78 | 1015.2 |
| 20260831204953 | 88 | 253 | 3.0 | 7.0 | 0.00 | 0.00 | 0.00 | 80 | 1015.2 |
| 20260831204450 | 88 | 269 | 1.0 | 4.0 | 0.00 | 0.00 | 0.00 | 80 | 1015.6 |
| 20260831203827 | 87 | 259 | 1.0 | 3.0 | 0.00 | 0.00 | 0.00 | 82 | 1015.6 |
| 20260831203253 | 87 | 258 | 1.0 | 3.0 | 0.00 | 0.00 | 0.00 | 81 | 1015.6 |
| 20260831202750 | 88 | 259 | 1.0 | 5.0 | 0.00 | 0.00 | 0.00 | 81 | 1015.6 |
| 20260831202246 | 88 | 15 | 2.0 | 15.0 | 0.00 | 0.00 | 0.00 | 80 | 1015.6 |
| 20260831201742 | 89 | 67 | 1.0 | 16.0 | 0.00 | 0.00 | 0.00 | 78 | 1015.6 |
| 20260831201239 | 91 | 76 | 2.0 | 16.0 | 0.00 | 0.00 | 0.00 | 78 | 1015.6 |
| 20260831200705 | 93 | 75 | 3.0 | 4.0 | 0.00 | 0.00 | 0.00 | 74 | 1015.6 |
| 20260831200144 | 93 | 265 | 1.0 | 3.0 | 0.00 | 0.00 | 0.00 | 72 | 1015.6 |
| 20260831195640 | 94 | 265 | 1.0 | 4.0 | 0.00 | 0.00 | 0.00 | 71 | 1015.6 |
| 20260831195106 | 95 | 302 | 1.0 | 9.0 | 0.00 | 0.00 | 0.00 | 69 | 1015.6 |
| 20260831194501 | 95 | 349 | 1.0 | 9.0 | 0.00 | 0.00 | 0.00 | 67 | 1015.6 |
| 20260831193958 | 95 | 33 | 2.0 | 9.0 | 0.00 | 0.00 | 0.00 | 66 | 1015.6 |
| 20260831193455 | 95 | 70 | 3.0 | 9.0 | 0.00 | 0.00 | 0.00 | 65 | 1015.6 |
| 20260831192921 | 95 | 344 | 2.0 | 6.0 | 0.00 | 0.00 | 0.00 | 65 | 1015.6 |
| 20260831192418 | 96 | 359 | 1.0 | 6.0 | 0.00 | 0.00 | 0.00 | 66 | 1015.6 |
| 20260831191915 | 96 | 101 | 2.0 | 6.0 | 0.00 | 0.00 | 0.00 | 66 | 1015.9 |
| 20260831191340 | 96 | 262 | 1.0 | 5.0 | 0.00 | 0.00 | 0.00 | 66 | 1015.9 |